Location: D�rnast
(49.6426°N, 11.9755°E)
Time: 00:26:57
(UTC+00:00)

N. Korean satellite - Pass Details

Date: 08 December 2021
Orbit: 446 x 492 km, 97.3° (Epoch: 16 January)

Event Time Altitude Azimuth Distance (km) Brightness Sun altitude
Rises 16:34:26 0° 206° (SSW) 2,514 11.0 -12.6°
Reaches altitude 10° 16:37:08 10° 229° (SW) 1,632 10.4 -13.0°
Maximum altitude 16:39:20 16° 269° (W) 1,313 9.8 -13.3°
Drops below altitude 10° 16:41:32 10° 308° (NW) 1,623 9.7 -13.7°
Sets 16:44:13 0° 331° (NNW) 2,495 10.3 -14.1°
